Total_Precipitation_Accumulation
1.71 1.81 1.75 1.92 1.96 2.06 2.23 2.54 2.61 2.76 2.78 2.71 2.36 2.05 1.96 1.83 1.69 1.79 1.98 1.91 1.81 1.97 2.37 2.72 2.59 2.22 1.98 1.84 1.66 1.51 1.40 1.37 1.23 0.95 0.86 0.92 0.91 0.86 0.79 0.73 0.67 0.60 0.51
2.25 2.42 2.41 2.41 2.23 2.22 2.45 2.70 2.85 3.28 3.18 3.05 2.57 2.31 2.08 2.00 1.80 1.72 1.93 2.12 1.80 1.72 2.00 2.52 2.75 2.54 2.28 2.11 1.94 1.74 1.59 1.48 1.39 1.04 0.83 0.85 0.92 0.89 0.85 0.80 0.69 0.58 0.48
2.56 2.70 2.67 2.56 2.55 2.53 2.69 2.87 3.05 3.16 2.93 2.81 2.66 2.49 2.24 2.05 1.79 1.71 1.80 1.99 1.85 1.72 1.83 2.09 2.46 2.58 2.50 2.41 2.31 2.08 1.74 1.54 1.34 1.10 0.84 0.77 0.80 0.82 0.82 0.82 0.74 0.59 0.42
2.74 2.98 2.80 2.67 2.95 2.82 2.94 3.29 3.30 3.27 3.15 2.97 2.82 2.58 2.36 2.14 1.74 1.63 1.62 1.80 2.07 1.82 1.82 2.02 2.17 2.24 2.50 2.67 2.66 2.52 2.20 1.80 1.41 1.18 0.97 0.91 0.91 0.88 0.84 0.78 0.73 0.58 0.41
2.65 2.87 2.73 2.75 2.86 3.12 3.17 2.97 3.40 3.39 3.27 3.13 2.65 2.42 2.13 1.92 1.70 1.53 1.55 1.59 1.83 1.70 1.66 1.78 1.90 1.99 2.43 2.97 3.16 3.08 2.87 2.48 1.95 1.63 1.57 1.52 1.46 1.28 1.06 0.89 0.75 0.60 0.44
2.52 2.87 2.68 2.62 2.75 3.03 3.00 3.00 3.30 3.28 3.03 3.05 2.52 2.16 1.97 1.65 1.62 1.61 1.43 1.47 1.51 1.30 1.38 1.60 2.01 1.75 1.89 2.26 2.72 3.11 3.26 3.19 2.81 2.69 2.75 2.52 2.31 1.90 1.38 1.08 0.86 0.73 0.59
2.37 2.72 2.51 2.71 2.68 2.74 2.73 2.78 3.03 3.09 2.82 2.91 2.81 2.33 1.80 1.43 1.40 1.40 1.41 1.45 1.32 1.36 1.66 1.90 2.06 2.05 1.88 1.71 1.84 2.34 3.01 3.40 3.21 3.00 3.14 3.21 3.12 2.52 1.77 1.35 1.04 0.84 0.71
2.20 2.34 2.47 2.37 2.44 2.53 2.54 2.58 2.79 2.73 2.42 2.58 2.72 2.67 2.05 1.70 1.34 1.07 1.33 1.39 1.32 1.50 1.61 1.64 1.91 2.16 2.14 2.24 1.76 1.64 2.23 2.94 3.24 3.10 2.98 3.19 3.24 2.66 2.00 1.73 1.38 1.05 0.90
2.02 2.08 2.18 2.21 2.23 2.15 2.28 2.44 2.41 2.39 2.25 2.22 2.41 2.63 2.27 1.84 1.50 1.11 0.99 1.10 1.30 1.45 1.48 1.61 1.61 1.74 1.82 2.17 2.13 1.80 1.70 1.97 2.63 3.23 3.24 3.12 3.01 2.58 2.17 1.99 1.77 1.40 1.18
1.77 1.79 1.79 1.81 1.87 1.91 2.11 1.96 1.99 2.16 2.22 2.08 2.15 2.17 2.11 2.10 1.93 1.41 1.06 1.02 1.22 1.32 1.31 1.26 1.37 1.54 1.64 1.82 1.93 1.82 1.63 1.55 1.87 2.55 3.04 3.10 2.87 2.41 2.15 2.16 2.29 2.05 1.58
1.67 1.59 1.63 1.61 1.60 1.63 1.74 1.76 1.99 2.00 2.04 2.01 1.96 1.94 2.02 2.02 1.88 1.69 1.35 1.22 1.19 1.06 1.09 1.15 1.27 1.46 1.63 1.73 1.88 1.71 1.70 1.55 1.60 1.78 2.19 2.56 2.66 2.54 2.26 2.26 2.63 2.74 2.37
1.48 1.48 1.49 1.48 1.45 1.49 1.61 1.65 1.71 1.71 1.77 1.80 1.75 1.74 1.85 1.78 1.70 1.78 1.53 1.40 1.35 1.10 1.11 1.16 1.19 1.31 1.39 1.49 1.39 1.48 1.47 1.34 1.32 1.33 1.37 1.66 1.97 2.14 2.18 2.30 2.63 2.86 2.85
1.24 1.23 1.31 1.34 1.31 1.35 1.48 1.53 1.49 1.52 1.58 1.60 1.57 1.62 1.70 1.64 1.62 1.76 1.81 1.64 1.51 1.25 1.26 1.25 1.16 1.24 1.20 1.41 1.37 1.23 1.06 0.99 0.92 0.91 0.95 1.08 1.26 1.46 1.64 1.90 2.28 2.59 2.74
1.13 1.13 1.18 1.20 1.22 1.25 1.28 1.44 1.48 1.48 1.53 1.55 1.51 1.71 1.67 1.51 1.54 1.67 1.84 1.99 1.88 1.57 1.51 1.39 1.21 1.11 1.17 1.25 1.18 0.99 0.79 0.73 0.69 0.67 0.66 0.73 0.87 0.99 1.12 1.32 1.59 1.83 2.02
1.35 1.34 1.29 1.26 1.29 1.34 1.41 1.53 1.60 1.58 1.63 1.62 1.68 1.77 1.67 1.51 1.49 1.56 1.82 2.03 2.16 1.94 1.68 1.49 1.35 1.09 1.09 1.05 1.00 0.91 0.89 0.72 0.56 0.54 0.53 0.51 0.56 0.65 0.75 0.85 0.97 1.13 1.25
1.51 1.49 1.44 1.37 1.33 1.37 1.49 1.59 1.64 1.64 1.67 1.72 1.74 1.81 1.83 1.70 1.70 1.72 1.85 2.02 2.15 2.19 1.86 1.55 1.52 1.26 1.13 0.94 0.91 0.86 0.79 0.73 0.57 0.47 0.47 0.45 0.45 0.48 0.52 0.59 0.67 0.75 0.85
1.44 1.36 1.28 1.24 1.23 1.22 1.26 1.30 1.32 1.35 1.39 1.44 1.44 1.54 1.69 1.82 1.82 1.81 1.87 1.92 2.05 2.21 1.95 1.84 1.93 1.78 1.54 1.28 1.08 0.94 0.78 0.76 0.66 0.53 0.44 0.44 0.45 0.46 0.48 0.52 0.55 0.61 0.67
1.16 1.06 1.05 1.05 1.00 0.96 0.97 0.98 1.00 1.10 1.20 1.27 1.35 1.41 1.37 1.45 1.52 1.59 1.69 1.83 1.95 2.15 2.07 2.09 2.24 2.21 1.94 1.57 1.40 1.23 0.93 0.80 0.73 0.64 0.50 0.40 0.43 0.45 0.46 0.50 0.53 0.55 0.59
0.85 0.82 0.85 0.89 0.88 0.85 0.84 0.85 0.91 0.99 1.06 1.12 1.18 1.18 1.12 1.15 1.20 1.31 1.38 1.52 1.70 1.97 2.09 2.20 2.38 2.34 2.10 1.84 1.69 1.40 1.18 1.10 0.87 0.78 0.65 0.49 0.41 0.43 0.47 0.49 0.54 0.60 0.60
0.73 0.75 0.77 0.81 0.84 0.87 0.91 1.01 1.06 1.07 1.06 1.00 0.94 0.90 0.89 0.97 1.04 1.15 1.25 1.29 1.43 1.66 1.83 2.03 2.28 2.32 2.17 2.06 1.96 1.65 1.44 1.34 1.17 0.95 0.86 0.64 0.52 0.46 0.47 0.49 0.53 0.61 0.69
0.68 0.75 0.84 0.88 0.93 0.93 0.86 0.95 1.03 1.02 1.02 0.96 0.87 0.76 0.71 0.77 0.84 0.93 0.95 1.10 1.26 1.46 1.59 1.78 2.05 2.29 2.13 2.03 1.92 1.80 1.64 1.58 1.48 1.29 1.23 0.94 0.75 0.61 0.49 0.48 0.52 0.62 0.78
0.81 0.82 0.79 0.81 0.81 0.68 0.71 0.81 0.88 0.91 0.92 0.92 0.86 0.75 0.65 0.65 0.68 0.76 0.84 0.91 1.03 1.20 1.38 1.64 1.86 2.05 1.95 1.88 1.97 2.01 1.95 1.75 1.69 1.58 1.65 1.54 1.30 1.13 0.86 0.62 0.54 0.58 0.72
0.85 0.90 0.84 0.78 0.74 0.74 0.77 0.76 0.74 0.80 0.86 0.82 0.84 0.84 0.70 0.58 0.67 0.71 0.77 0.77 0.85 0.94 1.06 1.31 1.53 1.69 1.85 1.85 2.04 2.17 2.26 2.16 2.03 1.91 2.03 2.09 1.95 1.78 1.19 0.94 0.85 0.70 0.67
0.91 0.92 0.91 0.85 0.87 0.84 0.76 0.69 0.71 0.72 0.80 0.79 0.78 0.78 0.79 0.79 0.74 0.72 0.79 0.80 0.72 0.73 0.80 0.85 1.04 1.36 1.87 2.12 2.10 2.18 2.39 2.41 2.26 2.18 2.23 2.38 2.20 2.11 1.67 1.21 0.95 0.70 0.61
0.94 0.90 0.89 0.84 0.82 0.82 0.71 0.61 0.61 0.63 0.71 0.74 0.74 0.71 0.69 0.73 0.75 0.68 0.73 0.75 0.73 0.72 0.74 0.81 0.93 1.16 1.43 1.74 1.92 1.99 2.10 2.24 2.37 2.36 2.31 2.40 2.35 2.22 2.21 1.89 1.31 0.91 0.64
1.02 0.94 0.87 0.83 0.81 0.82 0.70 0.53 0.52 0.57 0.65 0.69 0.76 0.73 0.62 0.56 0.57 0.58 0.66 0.75 0.74 0.71 0.76 0.79 0.80 0.89 1.07 1.25 1.33 1.34 1.45 1.57 1.78 1.96 1.90 2.07 2.31 2.36 2.53 2.51 2.00 1.41 1.02